CYYY

Mont Joli Airport

ICAO Code CYYY
IATA Code YYY
Name Mont Joli Airport
Location Mont-Joli, Quebec, CA
Elevation 172 Feet / 52.4 Meters
Latitude 48.60888889
Longitude -68.20805556
METAR CYYY 260500Z 14004KT 30SM BKN220 03/02 A3010 RMK CI5 SLP195
Extra information Display Charts and CFS
Display NOTAMS
Runway Length Width Surface Elevation
06 6000 ft 150 ft ASP 148 ft
15 3954 ft 150 ft ASP 131 ft
24 6000 ft 150 ft ASP 125 ft
33 3954 ft 150 ft ASP 172 ft

Mandatory Routes

Mont Joli Airport

Direction Destination Level Remark Type Route
DEP TO W H&L A120 & ABV RNAV MIVAX
DEP TO W L A100 & BLW YYY V98 YRI MIVAX